Washington, NC

10:30 AM EDT on April 23, 2017 (GMT -0400)
Warren

Weather History for KOCW - August, 2013

Change the Weather History Date:

Monday, August 5, 2013

  Actual Average (KPGV) Record (KPGV)
Temperature  
Mean Temperature 73 °F -  
Max Temperature 83 °F 89 °F 99 °F (1935)
Min Temperature 63 °F 69 °F 57 °F (1998)
Cooling Degree Days 8    
Growing Degree Days 23 (Base 50)    
Moisture  
Dew Point 61 °F    
Average Humidity 68    
Maximum Humidity 85    
Minimum Humidity 41    
Precipitation  
Precipitation 0.00 in - - ()
Sea Level Pressure  
Sea Level Pressure 30.06 in    
Wind  
Wind Speed 1 mph (ENE)    
Max Wind Speed 7 mph    
Max Gust Speed -    
Visibility 10 miles    
Events      
Averages and records for this station are not official NWS values.
T = Trace of Precipitation, MM = Missing Value Source: NWS Daily Summary

Daily Weather History Graph

Daily Weather History Graph

Search for Another Location

Airport or City:

Trip Planner

Search our weather history database for the weather conditions in past years. The results will help you decide how hot, cold, wet, or windy it might be!

Date:

Astronomy

Aug. 05, 2013 Rise Set
Actual Time 6:19 AM EDT 8:08 PM EDT
Civil Twilight 5:51 AM EDT 8:35 PM EDT
Nautical Twilight 5:18 AM EDT 9:09 PM EDT
Astronomical Twilight 4:42 AM EDT 9:44 PM EDT
Moon 5:12 AM EDT (8/5) 7:08 PM EDT (8/5)
Length of Visible Light 14h 43m
Length of Day
13h 48m
Waning Crescent, 1% of the Moon is Illuminated
Aug 5
Waning Crescent
Aug 6
New
Aug 14
First Quarter
Aug 20
Full
Aug 28
Last Quarter

Hourly Weather History & Observations

Time (EDT) Temp. Heat Index Dew Point Humidity Pressure Visibility Wind Dir Wind Speed Gust Speed Precip Events Conditions
12:15 AM 65.7 °F - 61.0 °F 85% 30.03 in 10.0 mi Calm Calm - N/A   Clear
12:35 AM 65.7 °F - 60.8 °F 84% 30.03 in 10.0 mi Calm Calm - N/A   Clear
12:55 AM 65.5 °F - 60.8 °F 85% 30.03 in 10.0 mi Calm Calm - N/A   Clear
1:15 AM 65.3 °F - 60.6 °F 85% 30.03 in 10.0 mi Calm Calm - N/A   Clear
1:35 AM 64.6 °F - 59.9 °F 85% 30.03 in 10.0 mi Calm Calm - N/A   Clear
1:55 AM 64.4 °F - 59.5 °F 84% 30.04 in 10.0 mi Calm Calm - N/A   Clear
2:15 AM 64.0 °F - 59.4 °F 85% 30.04 in 10.0 mi Calm Calm - N/A   Clear
2:35 AM 64.4 °F - 59.5 °F 84% 30.04 in 10.0 mi Calm Calm - N/A   Clear
2:55 AM 63.3 °F - 58.6 °F 85% 30.04 in 10.0 mi Calm Calm - N/A   Clear
3:15 AM 63.0 °F - 58.3 °F 85% 30.03 in 10.0 mi Calm Calm - N/A   Clear
3:35 AM 63.9 °F - 59.2 °F 85% 30.03 in 10.0 mi Calm Calm - N/A   Clear
3:55 AM 63.1 °F - 58.5 °F 85% 30.03 in 10.0 mi Calm Calm - N/A   Clear
4:15 AM 63.5 °F - 59.0 °F 85% 30.03 in 10.0 mi Calm Calm - N/A   Clear
4:35 AM 63.0 °F - 58.3 °F 85% 30.03 in 10.0 mi Calm Calm - N/A   Clear
4:55 AM 63.0 °F - 58.3 °F 85% 30.03 in 10.0 mi Calm Calm - N/A   Clear
5:15 AM 63.1 °F - 58.5 °F 85% 30.03 in 10.0 mi Calm Calm - N/A   Clear
5:35 AM 63.0 °F - 58.3 °F 85% 30.04 in 10.0 mi Calm Calm - N/A   Clear
5:55 AM 63.0 °F - 58.3 °F 85% 30.04 in 10.0 mi Calm Calm - N/A   Clear
6:15 AM 63.0 °F - 58.3 °F 85% 30.05 in 10.0 mi Calm Calm - N/A   Clear
6:35 AM 63.0 °F - 58.3 °F 85% 30.05 in 10.0 mi Calm Calm - N/A   Clear
6:55 AM 63.0 °F - 58.3 °F 85% 30.06 in 10.0 mi Calm Calm - N/A   Clear
7:15 AM 63.3 °F - 58.6 °F 85% 30.07 in 10.0 mi Calm Calm - N/A   Clear
7:35 AM 64.6 °F - 59.7 °F 84% 30.08 in 10.0 mi Calm Calm - N/A   Clear
7:55 AM 66.2 °F - 61.2 °F 84% 30.09 in 10.0 mi Calm Calm - N/A   Clear
8:15 AM 70.2 °F - 64.8 °F 83% 30.09 in 10.0 mi ENE 3.5 mph - N/A   Clear
8:35 AM 72.9 °F - 67.3 °F 83% 30.09 in 10.0 mi ENE 3.5 mph - N/A   Clear
8:55 AM 73.0 °F - 66.4 °F 80% 30.09 in 10.0 mi NE 4.6 mph - N/A   Clear
9:15 AM 73.8 °F - 66.0 °F 77% 30.10 in 10.0 mi NE 4.6 mph - N/A   Clear
9:35 AM 76.6 °F - 68.0 °F 75% 30.09 in 10.0 mi NE 3.5 mph - N/A   Clear
9:55 AM 78.1 °F - 67.3 °F 69% 30.09 in 10.0 mi East 6.9 mph - N/A   Clear
10:15 AM 78.1 °F - 64.4 °F 63% 30.09 in 10.0 mi ENE 6.9 mph - N/A   Clear
10:35 AM 78.1 °F - 60.4 °F 54% 30.09 in 10.0 mi ENE 4.6 mph - N/A   Clear
10:55 AM 80.2 °F 80.9 °F 59.4 °F 49% 30.09 in 10.0 mi ENE 5.8 mph - N/A   Clear
11:15 AM 80.6 °F 81.0 °F 58.8 °F 47% 30.10 in 10.0 mi NE 4.6 mph - N/A   Clear
11:35 AM 79.2 °F - 58.1 °F 48% 30.11 in 10.0 mi Calm Calm - N/A   Clear
11:55 AM 79.7 °F - 57.7 °F 47% 30.11 in 10.0 mi ENE 5.8 mph - N/A   Clear
12:15 PM 80.8 °F 81.1 °F 58.1 °F 46% 30.10 in 10.0 mi NE 5.8 mph - N/A   Clear
12:35 PM 80.8 °F 81.0 °F 57.6 °F 45% 30.10 in 10.0 mi Calm Calm - N/A   Clear
12:55 PM 80.8 °F 81.2 °F 59.0 °F 47% 30.09 in 10.0 mi Calm Calm - N/A   Scattered Clouds
1:15 PM 80.6 °F 81.0 °F 58.8 °F 47% 30.08 in 10.0 mi North 3.5 mph - N/A   Scattered Clouds
1:35 PM 80.8 °F 81.1 °F 57.9 °F 46% 30.08 in 10.0 mi East 3.5 mph - N/A   Scattered Clouds
1:55 PM 80.8 °F 80.8 °F 56.7 °F 43% 30.07 in 10.0 mi Calm Calm - N/A   Scattered Clouds
2:15 PM 81.5 °F 81.6 °F 58.5 °F 45% 30.07 in 10.0 mi East 4.6 mph - N/A   Clear
2:35 PM 81.0 °F 81.1 °F 57.7 °F 45% 30.06 in 10.0 mi Calm Calm - N/A   Clear
2:55 PM 82.9 °F 82.8 °F 58.6 °F 44% 30.06 in 10.0 mi ESE 4.6 mph - N/A   Scattered Clouds
3:15 PM 80.8 °F 80.9 °F 57.0 °F 44% 30.05 in 10.0 mi Calm Calm - N/A   Scattered Clouds
3:35 PM 80.8 °F 80.7 °F 55.9 °F 42% 30.05 in 10.0 mi Calm Calm - N/A   Scattered Clouds
3:55 PM 81.0 °F 81.1 °F 57.6 °F 45% 30.04 in 10.0 mi ENE 4.6 mph - N/A   Scattered Clouds
4:15 PM 81.3 °F 81.3 °F 57.7 °F 44% 30.04 in 10.0 mi Calm Calm - N/A   Scattered Clouds
4:35 PM 81.3 °F 81.3 °F 57.7 °F 44% 30.04 in 10.0 mi Calm Calm - N/A   Scattered Clouds
4:55 PM 82.9 °F 82.7 °F 58.5 °F 43% 30.03 in 10.0 mi SE 4.6 mph - N/A   Clear
5:15 PM 83.3 °F 82.9 °F 58.1 °F 42% 30.04 in 10.0 mi Calm Calm - N/A   Clear
5:35 PM 83.3 °F 82.8 °F 57.6 °F 41% 30.03 in 10.0 mi NE 3.5 mph - N/A   Clear
5:55 PM 80.8 °F 80.8 °F 56.3 °F 43% 30.04 in 10.0 mi East 3.5 mph - N/A   Clear
6:15 PM 81.5 °F 81.6 °F 58.5 °F 45% 30.04 in 10.0 mi ESE 3.5 mph - N/A   Scattered Clouds
6:35 PM 80.8 °F 81.5 °F 60.4 °F 50% 30.04 in 4.0 mi Calm Calm - N/A   Scattered Clouds
6:55 PM 80.8 °F 81.0 °F 57.4 °F 45% 30.03 in 10.0 mi ESE 4.6 mph - N/A   Scattered Clouds
7:15 PM 80.8 °F 81.8 °F 61.5 °F 52% 30.03 in 10.0 mi Calm Calm - N/A   Clear
7:35 PM 78.1 °F - 66.4 °F 67% 30.04 in 10.0 mi Calm Calm - N/A   Clear
7:55 PM 78.1 °F - 69.1 °F 74% 30.05 in 10.0 mi Calm Calm - N/A   Clear
8:15 PM 75.6 °F - 67.5 °F 76% 30.05 in 10.0 mi Calm Calm - N/A   Clear
8:35 PM 73.4 °F - 66.9 °F 80% 30.05 in 10.0 mi Calm Calm - N/A   Clear
8:55 PM 73.0 °F - 66.7 °F 81% 30.06 in 10.0 mi Calm Calm - N/A   Scattered Clouds
9:15 PM 73.0 °F - 64.9 °F 76% 30.07 in 10.0 mi ESE 4.6 mph - N/A   Scattered Clouds
9:35 PM 73.0 °F - 65.3 °F 77% 30.07 in 10.0 mi Calm Calm - N/A   Clear
9:55 PM 73.0 °F - 64.6 °F 75% 30.07 in 10.0 mi ESE 3.5 mph - N/A   Clear
10:15 PM 73.0 °F - 64.2 °F 74% 30.08 in 10.0 mi Calm Calm - N/A   Clear
10:35 PM 73.0 °F - 64.8 °F 75% 30.07 in 10.0 mi Calm Calm - N/A   Clear
10:55 PM 73.0 °F - 65.8 °F 78% 30.07 in 10.0 mi Calm Calm - N/A   Clear
11:15 PM 73.0 °F - 66.6 °F 80% 30.06 in 10.0 mi Calm Calm - N/A   Clear
11:35 PM 68.2 °F - 63.1 °F 84% 30.07 in 10.0 mi Calm Calm - N/A   Clear
11:55 PM 68.7 °F - 63.7 °F 84% 30.06 in 10.0 mi Calm Calm - N/A   Clear